Weather History for Wayne, NE

Change the Weather History Date:

Tuesday, March 12, 2013

  Actual Average (KOFK) Record (KOFK)
Temperature  
Mean Temperature 27 °F 36 °F  
Max Temperature 32 °F 47 °F 77 °F (1916)
Min Temperature 22 °F 25 °F -9 °F (1998)
Degree Days  
Heating Degree Days 38 29  
Month to date heating degree days 377  
Since 1 July heating degree days 5470  
Cooling Degree Days 0 0  
Month to date cooling degree days 0  
Year to date cooling degree days 0  
Moisture  
Dew Point 22 °F    
Average Humidity 76    
Maximum Humidity 90    
Minimum Humidity 67    
Precipitation  
Precipitation 0.00 in 0.05 in 0.68 in (1986)
Month to date precipitation 0.51  
Year to date precipitation 1.86  
Snow  
Snow 0.00 in 0.20 in - ()
Month to date snowfall 2.1  
Since 1 July snowfall 24.9  
Snow Depth -    
Sea Level Pressure  
Sea Level Pressure 30.15 in    
Wind  
Wind Speed 13 mph (NW)    
Max Wind Speed 28 mph    
Max Gust Speed 37 mph    
Visibility 10 miles    
Events Snow    
T = Trace of Precipitation, MM = Missing Value Source: NWS Daily Summary

Daily Weather History Graph

Daily Weather History Graph

Search for Another Location

Airport:

Trip Planner

Search our weather history database for the weather conditions in past years. The results will help you decide how hot, cold, wet, or windy it might be!

Date:

Astronomy

Mar. 12, 2013 Rise Set
Actual Time 7:44 AM CDT 7:31 PM CDT
Civil Twilight 7:16 AM CDT 7:59 PM CDT
Nautical Twilight 6:44 AM CDT 8:31 PM CDT
Astronomical Twilight 6:11 AM CDT 9:04 PM CDT
Moon 7:50 AM CDT (3/12) 8:50 PM CDT (3/12)
Length of Visible Light 12h 42m
Length of Day
11h 46m
New Moon, 1% of the Moon is Illuminated
Mar 12
New Moon
Mar 19
First Quarter
Mar 27
Full
Apr 2
Last Quarter
Apr 10
New

Hourly Weather History & Observations

Time (CDT) Temp. Windchill Dew Point Humidity Pressure Visibility Wind Dir Wind Speed Gust Speed Precip Events Conditions
12:15 AM 28.2 °F 24.4 °F 24.6 °F 86% 30.00 in 10.0 mi NW 3.5 mph - N/A   Clear
12:35 AM 27.3 °F 22.0 °F 24.3 °F 88% 30.00 in 10.0 mi WNW 4.6 mph - N/A   Clear
12:55 AM 26.8 °F 20.2 °F 24.3 °F 90% 30.00 in 10.0 mi WNW 5.8 mph - N/A   Clear
1:15 AM 27.0 °F 20.5 °F 24.1 °F 89% 30.01 in 10.0 mi WNW 5.8 mph - N/A   Clear
1:35 AM 26.8 °F 22.8 °F 23.7 °F 88% 30.01 in 10.0 mi WNW 3.5 mph - N/A   Clear
1:55 AM 28.8 °F 25.0 °F 24.8 °F 85% 30.01 in 10.0 mi WNW 3.5 mph - N/A   Clear
2:15 AM 29.5 °F 23.4 °F 25.7 °F 86% 30.01 in 10.0 mi West 5.8 mph - N/A   Clear
2:35 AM 29.7 °F 22.0 °F 25.7 °F 85% 30.01 in 10.0 mi West 8.1 mph - N/A   Clear
2:55 AM 27.7 °F 23.8 °F 24.6 °F 88% 30.01 in 10.0 mi West 3.5 mph - N/A   Clear
3:15 AM 30.2 °F 23.4 °F 25.9 °F 84% 30.01 in 10.0 mi West 6.9 mph - N/A   Clear
3:35 AM 30.9 °F 21.2 °F 25.7 °F 81% 30.01 in 10.0 mi West 12.7 mph - N/A   Scattered Clouds
3:55 AM 31.1 °F 21.4 °F 25.7 °F 80% 30.01 in 10.0 mi WSW 12.7 mph - N/A   Scattered Clouds
4:15 AM 31.8 °F 21.8 °F 26.1 °F 79% 30.01 in 10.0 mi West 13.8 mph - N/A   Overcast
4:35 AM 32.0 °F 21.6 °F 25.7 °F 78% 30.01 in 10.0 mi West 15.0 mph 23.0 mph N/A   Overcast
4:55 AM 32.0 °F 22.1 °F 25.2 °F 76% 30.01 in 10.0 mi WNW 13.8 mph 18.4 mph N/A   Mostly Cloudy
5:15 AM 32.5 °F 20.8 °F 24.4 °F 72% 30.02 in 10.0 mi WNW 19.6 mph 25.3 mph N/A   Mostly Cloudy
5:35 AM 32.2 °F 20.4 °F 23.9 °F 72% 30.03 in 10.0 mi WNW 19.6 mph 25.3 mph N/A   Clear
5:55 AM 32.0 °F 19.2 °F 22.8 °F 69% 30.04 in 10.0 mi NW 23.0 mph 29.9 mph N/A   Clear
6:15 AM 30.9 °F 16.9 °F 21.2 °F 67% 30.05 in 10.0 mi WNW 26.5 mph 36.8 mph N/A   Clear
6:35 AM 30.7 °F 18.1 °F 21.2 °F 68% 30.05 in 10.0 mi NW 20.7 mph 29.9 mph N/A   Mostly Cloudy
6:55 AM 30.9 °F 19.4 °F 22.5 °F 71% 30.05 in 10.0 mi NW 17.3 mph 27.6 mph N/A   Overcast
7:15 AM 31.1 °F 18.6 °F 22.1 °F 69% 30.05 in 10.0 mi NW 20.7 mph 28.8 mph N/A   Overcast
7:35 AM 31.3 °F 19.2 °F 22.3 °F 69% 30.06 in 10.0 mi WNW 19.6 mph 29.9 mph N/A   Overcast
7:55 AM 31.1 °F 18.6 °F 23.0 °F 72% 30.06 in 10.0 mi NW 20.7 mph 31.1 mph N/A   Overcast
8:35 AM 31.1 °F 18.3 °F 23.2 °F 72% 30.07 in 10.0 mi NW 21.9 mph 31.1 mph N/A   Overcast
8:55 AM 30.7 °F 17.5 °F 23.2 °F 74% 30.08 in 10.0 mi NW 23.0 mph 33.4 mph N/A   Overcast
9:15 AM 30.6 °F 17.0 °F 23.0 °F 74% 30.09 in 10.0 mi NW 24.2 mph 35.7 mph N/A   Overcast
9:35 AM 30.0 °F 16.3 °F 22.5 °F 73% 30.10 in 10.0 mi NW 24.2 mph 36.8 mph N/A   Overcast
9:55 AM 30.0 °F 16.6 °F 21.6 °F 71% 30.12 in 10.0 mi NW 23.0 mph 33.4 mph N/A   Overcast
10:15 AM 29.8 °F 16.3 °F 22.3 °F 73% 30.13 in 10.0 mi NW 23.0 mph 32.2 mph N/A   Overcast
10:35 AM 29.5 °F 15.5 °F 22.1 °F 74% 30.14 in 10.0 mi NW 24.2 mph 32.2 mph N/A   Overcast
10:55 AM 29.8 °F 17.0 °F 22.6 °F 75% 30.14 in 10.0 mi NW 20.7 mph 25.3 mph N/A   Overcast
11:15 AM 29.7 °F 15.2 °F 22.1 °F 73% 30.15 in 10.0 mi NW 26.5 mph 32.2 mph N/A   Overcast
11:35 AM 29.3 °F 15.0 °F 22.3 °F 75% 30.16 in 10.0 mi NW 25.3 mph 35.7 mph N/A Snow Light Snow
11:55 AM 29.7 °F 16.1 °F 22.3 °F 74% 30.17 in 10.0 mi NW 23.0 mph 34.5 mph N/A   Overcast
12:15 PM 29.8 °F 16.6 °F 21.4 °F 71% 30.18 in 10.0 mi NW 21.9 mph 33.4 mph N/A   Overcast
12:35 PM 30.4 °F 15.9 °F 21.0 °F 68% 30.18 in 10.0 mi NW 27.6 mph 31.1 mph N/A   Overcast
12:55 PM 30.4 °F 15.9 °F 21.0 °F 68% 30.19 in 10.0 mi NW 27.6 mph 33.4 mph N/A   Overcast
1:15 PM 30.2 °F 16.2 °F 20.8 °F 68% 30.19 in 10.0 mi NW 25.3 mph 35.7 mph N/A   Overcast
1:35 PM 30.4 °F 16.7 °F 21.7 °F 70% 30.20 in 10.0 mi NW 24.2 mph 31.1 mph N/A   Overcast
1:55 PM 30.2 °F 17.1 °F 21.6 °F 70% 30.20 in 10.0 mi NW 21.9 mph 28.8 mph N/A   Overcast
2:15 PM 30.2 °F 16.5 °F 21.0 °F 69% 30.20 in 10.0 mi NW 24.2 mph 33.4 mph N/A Snow Light Snow
2:35 PM 30.0 °F 16.9 °F 21.7 °F 71% 30.20 in 10.0 mi NNW 21.9 mph 31.1 mph N/A Snow Light Snow
2:55 PM 30.2 °F 16.8 °F 21.7 °F 71% 30.20 in 10.0 mi NW 23.0 mph 29.9 mph N/A   Overcast
3:15 PM 30.0 °F 16.6 °F 21.4 °F 70% 30.20 in 10.0 mi NW 23.0 mph 32.2 mph N/A Snow Light Snow
3:35 PM 30.2 °F 16.5 °F 21.2 °F 69% 30.21 in 10.0 mi NW 24.2 mph 33.4 mph N/A Snow Light Snow
3:55 PM 29.8 °F 16.3 °F 22.6 °F 75% 30.22 in 10.0 mi NNW 23.0 mph 26.5 mph N/A Snow Light Snow
4:15 PM 30.2 °F 17.1 °F 22.5 °F 73% 30.22 in 10.0 mi NW 21.9 mph 29.9 mph N/A Snow Light Snow
4:35 PM 29.5 °F 16.2 °F 22.6 °F 76% 30.23 in 10.0 mi NNW 21.9 mph 29.9 mph N/A Snow Light Snow
4:55 PM 29.3 °F 16.6 °F 22.3 °F 75% 30.23 in 7.0 mi NW 19.6 mph 31.1 mph N/A Snow Light Snow
5:15 PM 29.3 °F 15.6 °F 22.8 °F 77% 30.24 in 5.0 mi NW 23.0 mph 31.1 mph N/A Snow Light Snow
5:35 PM 29.1 °F 15.7 °F 21.2 °F 72% 30.24 in 10.0 mi NW 21.9 mph 33.4 mph N/A   Overcast
5:55 PM 29.1 °F 16.0 °F 21.7 °F 74% 30.24 in 10.0 mi NW 20.7 mph 28.8 mph N/A   Overcast
6:15 PM 28.8 °F 17.0 °F 22.1 °F 76% 30.24 in 10.0 mi NNW 16.1 mph 23.0 mph N/A   Overcast
6:35 PM 28.9 °F 17.3 °F 22.1 °F 76% 30.25 in 10.0 mi NNW 16.1 mph 25.3 mph N/A   Overcast
6:55 PM 28.8 °F 17.9 °F 21.2 °F 73% 30.25 in 10.0 mi NNW 13.8 mph 23.0 mph N/A   Overcast
7:15 PM 28.4 °F 15.8 °F 20.8 °F 73% 30.25 in 10.0 mi NNW 18.4 mph 25.3 mph N/A   Overcast
7:35 PM 28.2 °F 16.8 °F 21.4 °F 76% 30.26 in 10.0 mi NNW 15.0 mph 23.0 mph N/A   Overcast
7:55 PM 28.0 °F 16.5 °F 20.5 °F 73% 30.27 in 10.0 mi NNW 15.0 mph - N/A   Overcast
8:15 PM 27.0 °F 16.7 °F 20.7 °F 77% 30.28 in 10.0 mi NNW 11.5 mph 18.4 mph N/A   Mostly Cloudy
8:35 PM 26.4 °F 16.0 °F 20.1 °F 77% 30.28 in 10.0 mi NNW 11.5 mph - N/A   Scattered Clouds
8:55 PM 25.7 °F 17.1 °F 19.8 °F 78% 30.28 in 10.0 mi NNW 8.1 mph - N/A   Clear
9:15 PM 24.4 °F 17.5 °F 19.4 °F 81% 30.29 in 10.0 mi NNW 5.8 mph - N/A   Clear
9:35 PM 23.9 °F 19.5 °F 19.4 °F 83% 30.29 in 10.0 mi NW 3.5 mph - N/A   Clear
9:55 PM 23.7 °F 19.3 °F 19.2 °F 83% 30.30 in 10.0 mi NW 3.5 mph - N/A   Clear
10:15 PM 23.0 °F 15.8 °F 18.5 °F 83% 30.30 in 10.0 mi NNW 5.8 mph - N/A   Clear
10:35 PM 23.2 °F 16.0 °F 18.5 °F 82% 30.30 in 10.0 mi NW 5.8 mph - N/A   Clear
10:55 PM 22.8 °F 16.7 °F 18.5 °F 83% 30.30 in 10.0 mi NNW 4.6 mph - N/A   Clear
11:15 PM 23.7 °F 15.6 °F 18.9 °F 82% 30.31 in 10.0 mi NW 6.9 mph - N/A   Clear
11:35 PM 22.6 °F 15.3 °F 18.5 °F 84% 30.31 in 10.0 mi NW 5.8 mph - N/A   Clear
11:55 PM 22.5 °F 14.1 °F 18.5 °F 85% 30.31 in 10.0 mi NNW 6.9 mph - N/A   Clear